Weather History for KBPC - February, 2014

Change the Weather History Date:

Friday, February 28, 2014

  Actual Average Record
Temperature  
Mean Temperature 54 °F -  
Max Temperature 68 °F - - ()
Min Temperature 39 °F - - ()
Degree Days  
Heating Degree Days 12    
Growing Degree Days 4 (Base 50)    
Moisture  
Dew Point 31 °F    
Average Humidity 48    
Maximum Humidity 81    
Minimum Humidity 23    
Precipitation  
Precipitation 0.00 in - - ()
Sea Level Pressure  
Sea Level Pressure 29.67 in    
Wind  
Wind Speed 13 mph (North)    
Max Wind Speed 24 mph    
Max Gust Speed 31 mph    
Visibility 10 miles    
Events      
Averages and records for this station are not official NWS values.
T = Trace of Precipitation, MM = Missing Value Source: NWS Daily Summary

Daily Weather History Graph

Daily Weather History Graph

Search for Another Location

Airport or City:

Trip Planner

Search our weather history database for the weather conditions in past years. The results will help you decide how hot, cold, wet, or windy it might be!

Date:

Astronomy

Feb. 28, 2014 Rise Set
Actual Time 7:15 AM CST 6:38 PM CST
Civil Twilight 6:49 AM CST 7:04 PM CST
Nautical Twilight 6:20 AM CST 7:33 PM CST
Astronomical Twilight 5:50 AM CST 8:03 PM CST
Moon 6:30 AM CST (2/28) 6:16 PM CST (2/28)
Length of Visible Light 12h 14m
Length of Day
11h 22m
Waning Crescent, 1% of the Moon is Illuminated
Feb 28
Waning Crescent
Mar 1
New
Mar 8
First Quarter
Mar 16
Full
Mar 23
Last Quarter

Hourly Weather History & Observations

Time (CST) Temp. Windchill Dew Point Humidity Pressure Visibility Wind Dir Wind Speed Gust Speed Precip Events Conditions
12:15 AM 50.0 °F - 33.8 °F 54% 29.61 in 10.0 mi SSW 24.2 mph 31.1 mph N/A   Clear
12:35 AM 51.8 °F - 41.0 °F 67% 29.60 in 10.0 mi SSW 16.1 mph 23.0 mph N/A   Drizzle
12:55 AM 50.0 °F - 41.0 °F 71% 29.59 in 10.0 mi SSW 12.7 mph - N/A   Light Drizzle
1:15 AM 48.2 °F - 37.4 °F 66% 29.57 in 10.0 mi South 15.0 mph 21.9 mph N/A   Clear
1:35 AM 46.4 °F 39.8 °F 35.6 °F 66% 29.55 in 10.0 mi South 16.1 mph 20.7 mph N/A   Clear
1:55 AM 46.4 °F 39.2 °F 35.6 °F 66% 29.52 in 10.0 mi South 18.4 mph - N/A   Clear
2:15 AM 44.6 °F 37.4 °F 35.6 °F 71% 29.50 in 10.0 mi South 16.1 mph - N/A   Clear
2:35 AM 44.6 °F 37.4 °F 35.6 °F 71% 29.50 in 10.0 mi South 16.1 mph 21.9 mph N/A   Clear
2:55 AM 46.4 °F 40.4 °F 35.6 °F 66% 29.50 in 10.0 mi SSW 13.8 mph 23.0 mph N/A   Clear
3:15 AM 46.4 °F 40.7 °F 35.6 °F 66% 29.49 in 10.0 mi SSW 12.7 mph - N/A   Clear
3:35 AM 46.4 °F 41.5 °F 35.6 °F 66% 29.48 in 10.0 mi SSW 10.4 mph - N/A   Clear
3:55 AM 50.0 °F - 35.6 °F 58% 29.47 in 10.0 mi SSW 11.5 mph 21.9 mph N/A   Clear
4:20 AM 46.4 °F 41.9 °F 35.6 °F 66% 29.47 in 10.0 mi SSW 9.2 mph - N/A   Clear
4:35 AM 46.4 °F 41.5 °F 35.6 °F 66% 29.47 in 10.0 mi SSW 10.4 mph - N/A   Clear
4:55 AM 44.6 °F 43.1 °F 35.6 °F 71% 29.48 in 10.0 mi WSW 3.5 mph - N/A   Clear
5:15 AM 42.8 °F 38.0 °F 35.6 °F 76% 29.48 in 10.0 mi WNW 8.1 mph - N/A   Clear
5:35 AM 41.0 °F 37.1 °F 33.8 °F 76% 29.49 in 10.0 mi SW 5.8 mph - N/A   Clear
5:55 AM 39.2 °F 32.5 °F 33.8 °F 81% 29.50 in 10.0 mi WSW 10.4 mph - N/A   Clear
6:15 AM 41.0 °F 35.2 °F 33.8 °F 76% 29.52 in 10.0 mi WSW 9.2 mph - N/A   Clear
6:35 AM 41.0 °F 35.2 °F 32.0 °F 70% 29.54 in 10.0 mi WSW 9.2 mph - N/A   Clear
6:55 AM 42.8 °F 36.2 °F 32.0 °F 66% 29.54 in 10.0 mi West 12.7 mph - N/A   Clear
7:15 AM 42.8 °F 36.6 °F 32.0 °F 66% 29.55 in 10.0 mi WSW 11.5 mph - N/A   Clear
7:35 AM 44.6 °F 38.8 °F 32.0 °F 61% 29.57 in 10.0 mi West 11.5 mph - N/A   Clear
7:55 AM 44.6 °F 39.7 °F 32.0 °F 61% 29.59 in 10.0 mi West 9.2 mph - N/A   Clear
8:15 AM 46.4 °F 42.4 °F 32.0 °F 57% 29.59 in 10.0 mi West 8.1 mph - N/A   Clear
8:35 AM 50.0 °F - 32.0 °F 50% 29.61 in 10.0 mi WSW 5.8 mph - N/A   Clear
8:55 AM 51.8 °F - 32.0 °F 47% 29.62 in 10.0 mi WNW 8.1 mph - N/A   Clear
9:15 AM 53.6 °F - 30.2 °F 41% 29.65 in 10.0 mi WNW 13.8 mph - N/A   Clear
9:35 AM 53.6 °F - 30.2 °F 41% 29.66 in 10.0 mi NW 13.8 mph 18.4 mph N/A   Clear
9:55 AM 55.4 °F - 30.2 °F 38% 29.67 in 10.0 mi NW 12.7 mph 18.4 mph N/A   Clear
10:15 AM 55.4 °F - 30.2 °F 38% 29.66 in 10.0 mi NNW 12.7 mph 21.9 mph N/A   Clear
10:35 AM 57.2 °F - 30.2 °F 36% 29.68 in 10.0 mi WNW 15.0 mph 21.9 mph N/A   Clear
10:55 AM 57.2 °F - 30.2 °F 36% 29.68 in 10.0 mi NW 17.3 mph 20.7 mph N/A   Clear
11:15 AM 59.0 °F - 28.4 °F 31% 29.69 in 10.0 mi NNW 17.3 mph 24.2 mph N/A   Clear
11:35 AM 60.8 °F - 28.4 °F 29% 29.69 in 10.0 mi NNW 13.8 mph 23.0 mph N/A   Clear
11:55 AM 60.8 °F - 28.4 °F 29% 29.71 in 10.0 mi NNW 18.4 mph 23.0 mph N/A   Clear
12:15 PM 60.8 °F - 28.4 °F 29% 29.71 in 10.0 mi NNW 17.3 mph 23.0 mph N/A   Clear
12:35 PM 62.6 °F - 28.4 °F 27% 29.71 in 10.0 mi NNW 16.1 mph 23.0 mph N/A   Clear
12:55 PM 62.6 °F - 28.4 °F 27% 29.71 in 10.0 mi NNW 19.6 mph 23.0 mph N/A   Clear
1:15 PM 64.4 °F - 28.4 °F 26% 29.69 in 10.0 mi NNW 18.4 mph 21.9 mph N/A   Clear
1:35 PM 64.4 °F - 28.4 °F 26% 29.69 in 10.0 mi NNW 12.7 mph 23.0 mph N/A   Clear
1:55 PM 64.4 °F - 28.4 °F 26% 29.69 in 10.0 mi NNW 12.7 mph - N/A   Clear
2:20 PM 66.2 °F - 28.4 °F 24% 29.70 in 10.0 mi North 12.7 mph 18.4 mph N/A   Clear
2:35 PM 68.0 °F - 28.4 °F 23% 29.70 in 10.0 mi NNW 9.2 mph - N/A   Clear
2:55 PM 68.0 °F - 28.4 °F 23% 29.70 in 10.0 mi North 8.1 mph - N/A   Clear
3:15 PM 68.0 °F - 28.4 °F 23% 29.69 in 10.0 mi North 13.8 mph 18.4 mph N/A   Clear
3:35 PM 68.0 °F - 28.4 °F 23% 29.69 in 10.0 mi North 9.2 mph 17.3 mph N/A   Clear
3:55 PM 68.0 °F - 28.4 °F 23% 29.70 in 10.0 mi NNE 12.7 mph 17.3 mph N/A   Clear
4:15 PM 68.0 °F - 28.4 °F 23% 29.71 in 10.0 mi NE 8.1 mph 17.3 mph N/A   Clear
4:35 PM 68.0 °F - 28.4 °F 23% 29.71 in 10.0 mi NE 6.9 mph - N/A   Clear
4:55 PM 66.2 °F - 28.4 °F 24% 29.71 in 10.0 mi NE 6.9 mph - N/A   Clear
5:15 PM 66.2 °F - 28.4 °F 24% 29.71 in 10.0 mi ENE 9.2 mph - N/A   Clear
5:35 PM 64.4 °F - 28.4 °F 26% 29.72 in 10.0 mi NE 9.2 mph - N/A   Clear
5:50 PM 64.4 °F - 28.4 °F 26% 29.73 in 10.0 mi NE 11.5 mph - N/A   Clear
6:15 PM 62.6 °F - 28.4 °F 27% 29.74 in 10.0 mi ENE 9.2 mph - N/A   Clear
6:35 PM 59.0 °F - 28.4 °F 31% 29.75 in 10.0 mi ENE 6.9 mph - N/A   Clear
6:55 PM 55.4 °F - 28.4 °F 36% 29.76 in 10.0 mi ENE 5.8 mph - N/A   Clear
7:15 PM 51.8 °F - 28.4 °F 41% 29.77 in 10.0 mi ENE 5.8 mph - N/A   Clear
7:35 PM 51.8 °F - 28.4 °F 41% 29.78 in 10.0 mi East 6.9 mph - N/A   Clear
7:55 PM 50.0 °F - 28.4 °F 43% 29.79 in 10.0 mi East 4.6 mph - N/A   Clear
8:15 PM 48.2 °F - 28.4 °F 46% 29.80 in 10.0 mi ENE 3.5 mph - N/A   Clear
8:35 PM 46.4 °F 44.3 °F 28.4 °F 50% 29.81 in 10.0 mi East 4.6 mph - N/A   Clear
8:55 PM 44.6 °F 40.7 °F 28.4 °F 53% 29.82 in 10.0 mi East 6.9 mph - N/A   Clear
9:15 PM 44.6 °F 41.4 °F 30.2 °F 57% 29.82 in 10.0 mi East 5.8 mph - N/A   Clear
9:35 PM 44.6 °F 40.7 °F 30.2 °F 57% 29.83 in 10.0 mi East 6.9 mph - N/A   Clear
9:55 PM 48.2 °F - 32.0 °F 54% 29.84 in 10.0 mi East 10.4 mph - N/A   Clear
10:15 PM 46.4 °F 41.5 °F 32.0 °F 57% 29.85 in 10.0 mi East 10.4 mph - N/A   Clear
10:35 PM 44.6 °F 40.2 °F 32.0 °F 61% 29.86 in 10.0 mi ENE 8.1 mph - N/A   Clear
10:55 PM 44.6 °F 40.2 °F 33.8 °F 66% 29.87 in 10.0 mi East 8.1 mph - N/A   Clear
11:15 PM 44.6 °F 40.2 °F 33.8 °F 66% 29.87 in 10.0 mi East 8.1 mph - N/A   Clear
11:35 PM 42.8 °F 39.3 °F 33.8 °F 70% 29.88 in 10.0 mi ENE 5.8 mph - N/A   Clear
11:55 PM 41.0 °F 37.1 °F 32.0 °F 70% 29.90 in 10.0 mi ENE 5.8 mph - N/A   Clear